[[{"header":{"parameterUnit":"m.s-1","parameterCategory":1,"la1":30.2991,"la2":30.254,"lo1":-89.0895,"lo2":-89.0444,"dx":0.0017,"dy":0.0017,"nx":28,"ny":28,"refTime":"2022-12-23T15:00:00:Z","depth":0,"parameterNumber":2,"parameterNumberName":"U-component_of_WINDS"},"data":[0,0,0,0,0,0,0,0,0,0,0,0,0,0,0,0,0,0,0,0,0,0,0,0,0,0,0,0,0,0,0,0,0,0,0,0,0,0,0,0,0,0,0,0,0,0,0,0,0,0,0,0,0,0,0,0,0,0,1.8189,1.8189,0,1.8176,1.8176,1.8175,1.8137,1.8136,1.8135,1.8134,1.8121,1.8121,1.8122,0,0,0,0,0,0,0,0,0,0,0,0,0,1.8184,1.8184,1.8189,1.8189,1.8189,1.8176,1.8176,1.8175,1.8137,1.8136,1.8135,1.8134,1.8121,1.8121,1.8122,0,0,0,0,0,0,0,0,0,0,0,0,0,1.818,1.8184,1.819,1.8168,1.8166,1.8176,1.8176,1.8175,1.8137,1.8136,1.8134,1.8133,1.8121,1.8121,1.8122,1.8151,0,0,1.8124,1.8124,0,0,0,0,0,0,0,0,1.818,1.818,1.8171,1.817,1.8167,1.8157,1.8169,1.8167,1.8137,1.8148,1.8134,1.8133,1.8134,1.8133,1.8134,1.8151,1.815,1.8124,1.8124,1.8125,1.8125,0,0,0,0,0,0,0,1.818,1.818,1.8184,1.8171,1.8169,1.816,1.8158,1.8168,1.8148,1.8147,1.8144,1.8143,1.8133,1.8133,1.8133,1.815,1.8124,1.8125,1.8125,1.8125,1.8191,1.8192,0,0,0,0,0,0,1.8184,1.8181,1.8184,1.8184,1.8171,1.8161,1.8159,1.8161,1.8148,1.8145,1.8144,1.8141,1.8133,1.8132,1.8132,1.8166,1.8125,1.8125,1.8126,1.819,1.8191,1.8193,0,0,0,0,0,0,1.8184,1.8184,1.8185,1.8181,1.8181,1.8162,1.8166,1.8162,1.8162,1.8146,1.8142,1.8148,1.8132,1.8132,1.8147,1.8165,1.8126,1.8126,1.8188,1.819,1.8192,1.8233,0,0,0,0,0,0,1.8184,1.8184,1.8195,1.8182,1.8181,1.8199,1.8167,1.8162,1.8163,1.8159,1.8149,1.8146,1.8131,1.8146,1.8148,1.8165,1.8127,1.8186,1.8189,1.8191,1.823,1.8236,1.8241,0,0,0,0,0,1.8183,1.8207,1.8196,1.8196,1.8194,1.82,1.82,1.8182,1.8165,1.8175,1.8165,1.8146,1.8163,1.8148,1.8149,1.8167,1.8185,1.8188,1.8191,1.8227,1.8235,1.8241,0,0,0,0,0,0,1.8223,1.8205,1.8192,1.8212,1.8208,1.8194,1.8206,1.819,1.8191,1.8188,1.8165,1.8163,1.8182,1.8176,1.816,1.8195,1.8171,1.8174,1.8198,1.8205,1.821,1.8211,1.8127,0,0,0,0,0,1.8234,1.824,1.8225,1.8244,1.8242,1.8225,1.8227,1.8214,1.8209,1.8207,1.8197,1.8194,1.8198,1.8201,1.8205,1.8229,1.8226,1.8242,1.8248,1.8253,1.8255,1.8268,1.8275,1.8203,1.8203,1.8203,0,0,1.8256,1.8248,1.8253,1.8251,1.8247,1.8254,1.8224,1.8233,1.8238,1.8208,1.8222,1.8215,1.821,1.823,1.8238,1.8226,1.8275,1.8257,1.8261,1.8261,1.8272,1.8279,1.8285,1.8205,1.8204,1.8204,0,0,1.8301,1.8295,1.8311,1.8307,1.83,1.8288,1.8292,1.8281,1.8275,1.8288,1.8266,1.8273,1.8281,1.8277,1.8277,1.8322,1.8304,1.8324,1.8353,1.8366,1.8371,1.8376,1.8392,1.8398,1.8327,1.8327,1.8327,0,1.833,1.834,1.8321,1.8331,1.8331,1.8305,1.832,1.8317,1.8312,1.8313,1.8299,1.8309,1.8303,1.8322,1.8333,1.8334,1.8338,1.8324,1.8372,1.8377,1.8381,1.8396,1.8401,1.833,1.8329,1.8329,1.8329,0,1.8376,1.8383,1.8396,1.8391,1.8393,1.8406,1.8389,1.8394,1.8381,1.8371,1.8385,1.8378,1.8379,1.8383,1.837,1.84,1.8393,1.8376,1.8351,1.8391,1.8404,1.8409,1.8333,1.8332,1.8331,1.8331,0,0,1.8443,1.8428,1.8433,1.8431,1.8422,1.8427,1.844,1.8441,1.8445,1.8443,1.8452,1.846,1.8445,1.8445,1.8432,1.8443,1.8478,1.8425,1.8424,1.8434,1.851,1.8522,1.8529,1.8467,1.8468,1.8469,1.851,0,1.8484,1.8503,1.8487,1.851,1.8516,1.8492,1.8503,1.8499,1.849,1.8495,1.8486,1.8492,1.8472,1.8471,1.8481,1.8472,1.8493,1.8469,1.8476,1.8476,1.8476,1.8535,1.8548,1.8587,1.8516,1.8516,1.8517,0,1.8535,1.8534,1.8558,1.8548,1.855,1.856,1.8559,1.8564,1.856,1.8553,1.8553,1.8537,1.8549,1.8526,1.8542,1.8526,1.8528,1.8524,1.8525,1.8524,1.8498,1.8535,1.8599,1.8604,1.8525,1.8524,1.8524,0,1.858,1.8586,1.86,1.8599,1.8588,1.8596,1.8592,1.8586,1.8588,1.8588,1.8589,1.8591,1.8592,1.8594,1.8579,1.8564,1.8597,1.8573,1.8591,1.8592,1.8598,1.8598,1.8662,1.8602,1.8602,1.8602,1.8602,0,1.8627,1.8642,1.8621,1.8629,1.8646,1.8628,1.8644,1.8638,1.8633,1.864,1.862,1.8628,1.8609,1.8614,1.8603,1.8618,1.8619,1.8614,1.861,1.8614,1.8615,1.8614,1.8611,1.8603,1.8603,1.8603,1.8603,0,1.868,1.8666,1.868,1.8669,1.8667,1.8679,1.867,1.8678,1.8669,1.8678,1.868,1.8665,1.8671,1.8657,1.8661,1.8654,1.8674,1.8667,1.8675,1.8673,1.8692,1.869,1.8757,1.8765,1.8701,1.8702,1.8702,0,1.871,1.8721,1.8711,1.8714,1.8711,1.8717,1.8719,1.8702,1.8705,1.8701,1.8709,1.8714,1.8716,1.8726,1.8716,1.8719,1.8711,1.8735,1.8712,1.8716,1.871,1.8709,1.871,1.8739,1.874,1.8741,1.8741,0,1.8765,1.8758,1.8761,1.8762,1.8765,1.8765,1.8763,1.8768,1.875,1.8754,1.8759,1.8761,1.8765,1.8769,1.877,1.8766,1.8751,1.8749,1.8753,1.8757,1.8761,1.8758,1.8687,1.8747,1.8746,1.8746,1.8746,1.8745,1.8806,1.8815,1.8809,1.8813,1.8811,1.881,1.8817,1.8809,1.8813,1.8815,1.8805,1.8813,1.8809,1.8808,1.8806,1.8812,1.8802,1.8808,1.8809,1.8811,1.8813,1.8761,1.8813,1.8812,1.8812,1.8812,1.8812,0,1.8859,1.8854,1.8859,1.8857,1.8861,1.8847,1.8845,1.8849,1.8856,1.8853,1.8856,1.8862,1.8867,1.8858,1.8861,1.8867,1.886,1.8868,1.8867,1.8866,1.8823,1.8819,1.8874,1.8874,1.8874,1.8874,1.8874,1.8874,1.8886,1.89,1.8892,1.8905,1.89,1.8907,1.8907,1.8907,1.8905,1.8913,1.8916,1.8911,1.8906,1.8908,1.8912,1.8909,1.891,1.8921,1.8916,1.8876,1.8869,1.8864,1.8859,1.8922,1.8922,1.8958,1.8958,1.8959]},{"header":{"parameterUnit":"m.s-1","parameterCategory":1,"la1":30.2991,"la2":30.254,"lo1":-89.0895,"lo2":-89.0444,"dx":0.0017,"dy":0.0017,"nx":28,"ny":28,"refTime":"2022-12-23T15:00:00:Z","depth":0,"parameterNumber":3,"parameterNumberName":"V-component_of_WINDS"},"data":[0,0,0,0,0,0,0,0,0,0,0,0,0,0,0,0,0,0,0,0,0,0,0,0,0,0,0,0,0,0,0,0,0,0,0,0,0,0,0,0,0,0,0,0,0,0,0,0,0,0,0,0,0,0,0,0,0,0,-4.9232,-4.9234,0,-4.9398,-4.94,-4.9402,-4.9369,-4.9366,-4.9363,-4.9361,-4.9528,-4.9535,-4.9542,0,0,0,0,0,0,0,0,0,0,0,0,0,-4.8882,-4.8888,-4.9232,-4.9234,-4.9236,-4.9398,-4.94,-4.9402,-4.937,-4.9366,-4.9363,-4.9359,-4.9526,-4.9534,-4.9543,0,0,0,0,0,0,0,0,0,0,0,0,0,-4.9039,-4.8891,-4.9231,-4.9239,-4.9242,-4.9397,-4.94,-4.9403,-4.9371,-4.9366,-4.9362,-4.9358,-4.9523,-4.9534,-4.9544,-4.9702,0,0,-4.9578,-4.9582,0,0,0,0,0,0,0,0,-4.9031,-4.9052,-4.9236,-4.9239,-4.9242,-4.9359,-4.9338,-4.9503,-4.9372,-4.9322,-4.9361,-4.9355,-4.9475,-4.949,-4.9531,-4.971,-4.9717,-4.9579,-4.9585,-4.959,-4.9593,0,0,0,0,0,0,0,-4.902,-4.9045,-4.9297,-4.9239,-4.9242,-4.9233,-4.9251,-4.9369,-4.9422,-4.9326,-4.9324,-4.9344,-4.9476,-4.952,-4.9534,-4.9719,-4.9578,-4.9588,-4.9595,-4.9599,-5.0034,-5.0038,0,0,0,0,0,0,-4.9007,-4.9036,-4.9292,-4.9302,-4.9123,-4.9243,-4.9263,-4.9326,-4.942,-4.943,-4.9348,-4.9342,-4.9504,-4.9522,-4.954,-4.973,-4.959,-4.96,-4.9606,-5.0029,-5.0035,-5.004,0,0,0,0,0,0,-4.8999,-4.903,-4.9285,-4.9169,-4.9201,-4.9254,-4.9325,-4.9331,-4.9376,-4.9437,-4.9446,-4.9384,-4.9501,-4.9525,-4.9662,-4.9735,-4.9605,-4.9615,-5.0023,-5.003,-5.0037,-5.0111,0,0,0,0,0,0,-4.8989,-4.9027,-4.9089,-4.9171,-4.9207,-4.9406,-4.933,-4.9338,-4.9395,-4.9389,-4.9473,-4.9483,-4.9499,-4.9646,-4.9672,-4.9748,-4.9623,-5.0016,-5.0026,-5.0035,-5.0102,-5.012,-5.0135,0,0,0,0,0,-4.8977,-4.9103,-4.9092,-4.9123,-4.9285,-4.941,-4.9431,-4.9448,-4.9401,-4.9462,-4.9501,-4.948,-4.9723,-4.966,-4.969,-4.9769,-5.0012,-5.0023,-5.0034,-5.0094,-5.0116,-5.0134,0,0,0,0,0,0,-4.9027,-4.9113,-4.9103,-4.9259,-4.9327,-4.9404,-4.9482,-4.9471,-4.9554,-4.9544,-4.9562,-4.9581,-4.972,-4.9758,-4.9687,-4.9926,-4.986,-4.9878,-4.9896,-4.9917,-4.9933,-4.9921,-4.9632,0,0,0,0,0,-4.9057,-4.9152,-4.9222,-4.9352,-4.9387,-4.9429,-4.9484,-4.9492,-4.9563,-4.9591,-4.964,-4.971,-4.9801,-4.9861,-4.9949,-5.0107,-5.0124,-5.0176,-5.0193,-5.0206,-5.0221,-5.0306,-5.033,-5.0077,-5.0077,-5.0077,0,0,-4.9118,-4.9177,-4.9236,-4.9364,-4.9418,-4.9515,-4.9454,-4.9559,-4.9631,-4.9607,-4.9739,-4.9778,-4.9855,-5.0003,-5.0071,-5.004,-5.0295,-5.0221,-5.0231,-5.0239,-5.032,-5.0344,-5.0365,-5.0085,-5.0083,-5.0082,0,0,-4.928,-4.9335,-4.9449,-4.9504,-4.9587,-4.9613,-4.9641,-4.972,-4.9744,-4.9877,-4.9861,-4.9945,-5.0104,-5.0159,-5.0208,-5.0389,-5.0372,-5.0417,-5.0504,-5.0586,-5.0606,-5.0624,-5.0687,-5.071,-5.0432,-5.0432,-5.0433,0,-4.9346,-4.9492,-4.9509,-4.9616,-4.9672,-4.9655,-4.977,-4.9823,-4.993,-4.9968,-4.9932,-5.0129,-5.018,-5.034,-5.0384,-5.0425,-5.0455,-5.0408,-5.0602,-5.062,-5.0637,-5.0697,-5.0721,-5.0437,-5.0437,-5.0436,-5.0436,0,-4.9568,-4.967,-4.9752,-4.9856,-4.9921,-5.0032,-5.0064,-5.0127,-5.0129,-5.0159,-5.0293,-5.0354,-5.0453,-5.0492,-5.0494,-5.0652,-5.063,-5.0598,-5.0532,-5.0665,-5.0722,-5.0746,-5.0444,-5.0443,-5.0441,-5.044,0,0,-4.9768,-4.9878,-4.9908,-4.9954,-5.0043,-5.0122,-5.023,-5.0328,-5.0381,-5.0455,-5.0546,-5.0679,-5.065,-5.0705,-5.0714,-5.0786,-5.0924,-5.0745,-5.0747,-5.0775,-5.1099,-5.1122,-5.1149,-5.0913,-5.0917,-5.0921,-5.1092,0,-4.9936,-5.0129,-5.0147,-5.0319,-5.0412,-5.0397,-5.0492,-5.0556,-5.0586,-5.0668,-5.0701,-5.0795,-5.075,-5.0783,-5.0854,-5.0892,-5.0989,-5.088,-5.0996,-5.1,-5.0976,-5.1179,-5.1204,-5.1363,-5.1115,-5.1119,-5.1121,0,-5.016,-5.024,-5.0422,-5.0497,-5.0537,-5.0621,-5.0711,-5.0791,-5.0862,-5.0879,-5.0941,-5.0939,-5.1049,-5.0979,-5.113,-5.1056,-5.1104,-5.1129,-5.1136,-5.1147,-5.1068,-5.1195,-5.1414,-5.1438,-5.1157,-5.1154,-5.1152,0,-5.0285,-5.0439,-5.0567,-5.0608,-5.0698,-5.0758,-5.0798,-5.0865,-5.0922,-5.1,-5.1037,-5.1127,-5.1176,-5.1245,-5.1266,-5.1214,-5.1416,-5.1349,-5.1432,-5.1432,-5.1475,-5.1472,-5.1705,-5.1508,-5.1507,-5.1507,-5.1506,0,-5.0472,-5.0584,-5.0625,-5.0704,-5.0828,-5.0846,-5.0968,-5.1004,-5.1064,-5.1149,-5.1141,-5.122,-5.1244,-5.1327,-5.1345,-5.1466,-5.1489,-5.1504,-5.1508,-5.1505,-5.1503,-5.1536,-5.1526,-5.1513,-5.1512,-5.151,-5.1509,0,-5.0633,-5.0666,-5.0804,-5.0878,-5.0899,-5.0987,-5.105,-5.1125,-5.1154,-5.1261,-5.1287,-5.1332,-5.1429,-5.1457,-5.1574,-5.1586,-5.1728,-5.1722,-5.1704,-5.1704,-5.1786,-5.1777,-5.2048,-5.2084,-5.1863,-5.1865,-5.1867,0,-5.075,-5.0836,-5.0919,-5.0975,-5.1018,-5.1109,-5.1167,-5.1187,-5.1248,-5.1335,-5.1399,-5.1495,-5.1573,-5.1729,-5.1771,-5.186,-5.1855,-5.1944,-5.1868,-5.1863,-5.1855,-5.185,-5.1858,-5.1958,-5.196,-5.1962,-5.1964,0,-5.0954,-5.0965,-5.105,-5.1139,-5.1209,-5.128,-5.1349,-5.1395,-5.1425,-5.1493,-5.1593,-5.1654,-5.1773,-5.1868,-5.1958,-5.1997,-5.1986,-5.1987,-5.2011,-5.2009,-5.1995,-5.2002,-5.1742,-5.1981,-5.1979,-5.1978,-5.1977,-5.1976,-5.1096,-5.1171,-5.124,-5.1334,-5.1388,-5.1452,-5.1526,-5.1563,-5.1647,-5.1746,-5.1752,-5.186,-5.1927,-5.2047,-5.2091,-5.2175,-5.2149,-5.2183,-5.2192,-5.22,-5.2206,-5.1982,-5.2191,-5.2191,-5.219,-5.219,-5.219,0,-5.1298,-5.1342,-5.1428,-5.1524,-5.1598,-5.158,-5.1655,-5.1717,-5.1812,-5.1876,-5.1953,-5.2067,-5.2158,-5.2207,-5.2298,-5.2355,-5.2352,-5.2379,-5.2374,-5.2383,-5.2225,-5.2195,-5.238,-5.238,-5.238,-5.238,-5.2379,-5.2379,-5.1412,-5.1537,-5.1556,-5.1707,-5.175,-5.1855,-5.1899,-5.1958,-5.2009,-5.2136,-5.2213,-5.2244,-5.2302,-5.2397,-5.2479,-5.2491,-5.2525,-5.2554,-5.2563,-5.2414,-5.2395,-5.2376,-5.2348,-5.2561,-5.2562,-5.2714,-5.2715,-5.2716]}]]